weather.gov     
National Weather Service

Regional Weather Roundup
NWS Homepage
This page is being discontinued on March 12, 2014.
The same data is available at this site. Please update your bookmarks.
Thank you, and we apologize for the inconvenience.
Please send an email to SR-SRH.Webmaster@noaa.gov with any concerns.


Current Version
Previous Version:    01  02  03  04  05  06  07  08  09  10  11  12  13  14  15  16  17  18  19  20  21  22  23  24  25  26  
[Printable]
100
ASUS44 KHUN 240010
RWRHUN

WEATHER ROUNDUP FOR THE TENNESSEE VALLEY
NATIONAL WEATHER SERVICE HUNTSVILLE AL
600 PM CST SUN NOV 23 2014

ALZ001>004-240100-
NORTHWEST ALABAMA

CITY           SKY/WX    TMP DP  RH WIND       PRES   REMARKS
COURTLAND HCN    N/A     63 N/A N/A S13         N/A
RUSSELLVILLE     N/A     63 N/A N/A MISG        N/A
SHOALS AIRPORT LGT RAIN  64  57  78 SW22G36   29.46R
6HR MIN TEMP:  58; 6HR MAX TEMP:  65; 6HR PCP:  0.33;

SHOALS TVA RES   N/A     63 N/A N/A MISG        N/A
$$

ALZ005>007-016-240100-
NORTH CENTRAL ALABAMA

CITY           SKY/WX    TMP DP  RH WIND       PRES   REMARKS
CULLMAN AG STN   N/A     61 N/A N/A S7          N/A
DECATUR AP     CLOUDY    62  58  86 S18G26    29.50R
6HR MIN TEMP:  56; 6HR MAX TEMP:  62; 6HR PCP:  0.32;

HUNTSVILLE AP  MOCLDY    63  58  83 S17G26    29.50R
6HR MIN TEMP:  57; 6HR MAX TEMP:  63; 6HR PCP:  0.24;

HUN NWS/UAH      N/A     60  57  87 S12         N/A
MERIDIANVILLE  LGT RAIN  57  54  88 S10       29.50F
REDSTONE ARSN  CLOUDY    63  59  88 S21G30    29.49S
VINEMONT AP    LGT RAIN  60  58  92 SW10      29.56R
$$

ALZ008>010-240100-
NORTHEAST ALABAMA

CITY           SKY/WX    TMP DP  RH WIND       PRES   REMARKS
ALBERTVILLE    PTCLDY    61  61 100 S16G23    29.55F
FORT PAYNE     CLOUDY    57  52  82 S9        29.59R
SCOTTSBORO AP  CLOUDY    59  55  88 S8        29.56S
SCOTTSBORO HCN   N/A     57 N/A N/A MISG        N/A
VALLEY HEAD      N/A     57 N/A N/A MISG        N/A
$$

TNZ076-096-097-240100-
SOUTHEASTERN MIDDLE TENNESSEE

CITY           SKY/WX    TMP DP  RH WIND       PRES   REMARKS
TULLAHOMA      CLOUDY    57  54  88 S12       29.49F
WINCHESTER     MOCLDY    57  54  88 S14       29.52R
$$

...SURROUNDING SITES...

CITY           SKY/WX    TMP DP  RH WIND       PRES   REMARKS
ATLANTA        CLOUDY    61  59  93 S13G18    29.70R
ANNISTON       PTCLDY    63  56  78 SW14      29.64R
BIRMINGHAM     CLOUDY    63  58  83 S18G28    29.62R
CHATTANOOGA    CLOUDY    57  54  89 S10       29.59R
CORINTH        LGT RAIN  63  59  88 SW18G35   29.43R
DALTON         LGT RAIN  55  55 100 S8G16     29.63R
GADSDEN        MOCLDY    63  57  82 S8G17     29.59S
GOLDEN TRNGL   MOCLDY    63  55  77 S12       29.53R
HALEYVILLE     LGT RAIN  61  59  93 S20G29    29.53R
JACKSON TN     CLOUDY    61  59  94 SW9       29.37R
LEWISBURG      CLOUDY    59  56  89 S13       29.42F
MEMPHIS        CLOUDY    60  57  89 SW12      29.42R
MURFREESBORO   MOCLDY    58  55  89 S17       29.44F
NASHVILLE      CLOUDY    59  56  89 S16G29    29.41F
OXFORD MS      CLOUDY    59  57  94 SW12G20   29.49R
ROME           CLOUDY    54  53  97 S8        29.63R
SAVANNAH       CLOUDY    61  61 100 SW21      29.39R
TUPELO         CLOUDY    63  58  83 S16G25    29.50R
TUSCALOOSA     PTCLDY    65  57  75 S13       29.59R
$$

...GULF COAST WEATHER...

CITY           SKY/WX    TMP DP  RH WIND       PRES   REMARKS
GULFPORT       CLEAR     66  61  84 S8        29.69R
PASCAGOULA     CLEAR     65  62  90 S7        29.70S
MOBILE         PTCLDY    64  62  93 S8        29.71R
GULF SHORES    CLEAR     67  64  91 SW10      29.72R
PENSACOLA      PTCLDY    66  64  93 SW9       29.73R FOG
DESTIN         CLOUDY    70  67  90 SW8       29.76R
PANAMA CITY    LGT RAIN  64  64 100 SE5       29.82R FOG
APPALACHICOLA  CLOUDY    66  63  90 SE5       29.84R
$$





U.S. Dept. of Commerce
NOAA National Weather Service
1325 East West Highway
Silver Spring, MD 20910
E-mail: w-nws.webmaster@noaa.gov
Page last modified: May 16, 2007
NATIONAL WEATHER SERVICE: for Safety, for Work, for Fun - FOR LIFE